Regional Weather Roundup
Issued by NWS

Home | Current Version | Previous Version | Graphics & Text | Print | Product List | Glossary On
Versions: 1 2 3 4 5 6 7 8 9 10 11 12 13 14 15 16 17 18 19 20 21 22 23 24 25 26 27 28 29 30 31 32 33 34 35 36 37 38 39 40 41 42 43 44 45 46 47 48 49 50
000
ASUS43 KIND 251459
RWRIN

WEATHER ROUNDUP FOR INDIANA
NATIONAL WEATHER SERVICE INDIANAPOLIS IN
1000 AM EST TUE NOV 25 2014

NOTE: "FAIR" INDICATES FEW OR NO CLOUDS BELOW 12,000 FEET WITH NO
SIGNIFICANT WEATHER AND/OR OBSTRUCTIONS TO VISIBILITY.

* - STATION DOES NOT REPORT WEATHER SUCH AS PRECIPITATION OR FOG.

+ - STATION NOT QUALITY CONTROLLED BY THE NATIONAL WEATHER SERVICE.
    USE DATA WITH CAUTION...ESPECIALLY DEWPOINT AND RELATIVE
    HUMIDITY OBSERVATIONS.

INZ001>003-010>013-019-020-251600-
NORTHWEST INDIANA

CITY           SKY/WX    TMP DP  RH WIND       PRES   REMARKS
GARY /AIRPORT/ CLOUDY    25  18  74 W14G25    30.08R WCI  13
VALPARAISO     NOT AVBL

$$

LMZ046-743>745-251600-
SOUTHERN LAKE MICHIGAN

STATION/POSITION TIME  TEMP WIND        PRES
                       AIR  DIR/SP/G
                 (UTC) (F)  (DEG/KT/KT) (MB)
MICHIGAN CITY    1400   25  230/ 20/ 23   N/A

$$

INZ004-005-014>016-021>024-251600-
NORTH CENTRAL INDIANA

CITY           SKY/WX    TMP DP  RH WIND       PRES   REMARKS
ELKHART        CLOUDY    27  18  69 W14       30.02R WCI  15
GOSHEN         CLOUDY   N/A N/A N/A W17       30.02R
SOUTH BEND     CLOUDY    25  19  78 W12       30.03R WCI  14

$$

INZ006>009-017-018-025>027-251600-
NORTHEAST INDIANA

CITY           SKY/WX    TMP DP  RH WIND       PRES   REMARKS
ANGOLA *+      CLOUDY    27  21  80 W15       29.98R WCI  15
FORT WAYNE     CLOUDY    30  25  81 W18G24    30.03R WCI  18

$$

INZ028-029-035-036-043>045-051>053-251600-
WEST CENTRAL INDIANA

CITY           SKY/WX    TMP DP  RH WIND       PRES   REMARKS
GREENCASTLE +  CLOUDY    32  27  80 W6        30.09R WCI  26
LAFAYETTE      CLOUDY    26  20  77 NW10      30.10R WCI  16
TERRE HAUTE    CLOUDY    31  24  75 NW14      30.13R WCI  21

$$

INZ030>032-037>040-046>048-054>057-064-065-251600-
CENTRAL INDIANA

CITY           SKY/WX    TMP DP  RH WIND       PRES   REMARKS
ANDERSON       CLOUDY    32  25  74 W12G23    30.06R WCI  23
INDIANAPOLIS   CLOUDY    33  26  75 W16       30.07R WCI  23
-EAGLE CREEK   CLOUDY    32  25  75 W12       30.07R WCI  23
KOKOMO *+      CLOUDY    28  21  74 W24       30.06R WCI  14
MT COMFORT *+  CLOUDY    34  23  64 W14       30.06R WCI  24
SHELBYVILLE    CLOUDY    37  30  75 SW12      30.05R

$$

INZ033-034-041-042-049-050-058-059-251600-
EAST CENTRAL INDIANA

CITY           SKY/WX    TMP DP  RH WIND       PRES   REMARKS
MUNCIE         CLOUDY    33  26  75 W18G24    30.04R WCI  22

$$

INZ060-061-067>069-081>083-085>088-251600-
SOUTHWEST INDIANA

CITY           SKY/WX    TMP DP  RH WIND       PRES   REMARKS
EVANSVILLE     SUNNY     37  24  59 W8        30.17R
HUNTINGBURG *+ SUNNY     36  27  69 SW7       30.16R

$$

INZ062-063-066-070>080-084-089>092-251600-
SOUTH CENTRAL AND SOUTHEAST INDIANA

CITY           SKY/WX    TMP DP  RH WIND       PRES   REMARKS
BLOOMINGTON    PTSUNNY   33  26  75 W13G18    30.09R WCI  24
SEYMOUR +      SUNNY     37  28  70 W14       30.10R

$$



USA.gov is the U.S. government's official web portal to all federal, state and local government web resources and services.